Retour au catalogue

ONEWEB-0065

ActifCommunicationsPO
NORAD 45164·PAYLOAD·🇬🇧 United Kingdom

Lancé Feb 6, 2020 depuis Baikonur Cosmodrome

Loading…

Prochains Passages (prochaines 24 heures)

TLE

FraisSource: CelesTrak SupGP

Époque: Sep 14, 2026, 20:32 UTC

1 45164C 20008AK  26257.85573331 -.00000835  00000+0 -23959-2 0  2571
2 45164  87.8914  18.4245 0001781 112.1622   1.4861 13.10375023    11

Suivez ONEWEB-0065 en temps réel avec AllMySat

Download on the App Store